RH
9 10 13 25 37 50 64 72 79 86 87 86 91 93 92 91 95 101 101 90 70 56 51 44 36 33 36 34 32 35 37 43 62 79 88 96 97 96 100 101 100 100 100 99 99 100 100 100 100 100 100 100 100 99 100 100 100 101 98 90 85 87 90 95 99 100 99 100 100 98 98 98 94 91
9 11 13 23 38 53 67 75 82 88 88 89 90 87 84 89 99 102 99 89 70 55 46 39 35 30 29 31 28 30 37 47 70 89 94 96 99 99 100 100 99 100 100 99 100 100 100 99 100 100 100 100 100 100 99 100 99 100 100 94 88 85 82 87 96 100 100 99 101 100 99 97 92 90
9 10 13 24 39 55 70 77 80 81 83 83 80 80 86 95 100 99 98 91 66 49 41 31 28 27 24 26 27 27 36 56 81 94 96 98 100 100 100 100 100 100 100 100 100 100 100 100 100 100 100 99 99 100 99 99 100 99 101 97 92 86 77 78 90 98 101 100 100 100 98 96 92 87
9 11 15 25 39 57 74 77 76 79 81 76 73 83 94 99 101 95 95 92 61 38 38 30 23 26 25 24 25 28 41 66 88 97 97 97 95 94 95 97 99 100 99 99 98 98 95 92 91 90 94 98 100 101 99 99 100 99 100 99 97 93 81 74 82 94 101 100 99 100 98 98 96 89
10 11 15 25 37 59 77 76 73 81 81 71 73 92 99 98 102 93 84 85 64 36 32 32 24 23 26 24 25 38 58 77 94 100 93 86 83 87 91 89 89 90 90 91 94 96 92 89 88 87 92 99 100 100 100 99 99 99 99 100 99 97 87 74 75 89 100 100 99 101 99 96 97 93
10 11 17 24 35 59 75 72 74 82 79 71 80 98 101 99 100 84 67 74 75 51 32 30 26 22 28 33 35 55 81 92 99 97 83 76 82 89 91 87 86 86 85 86 91 97 98 97 97 97 98 101 99 100 101 99 100 100 99 100 99 98 92 77 70 82 96 99 97 97 96 92 91 93
9 12 18 22 34 56 66 69 79 81 73 77 90 98 101 101 93 73 61 70 80 70 46 35 34 30 37 51 58 76 97 99 93 85 76 81 90 91 90 88 85 84 84 86 89 95 99 100 99 99 99 99 99 100 100 99 100 99 100 100 98 96 94 80 67 74 90 95 88 81 82 85 87 88
10 12 16 21 32 46 59 73 81 75 72 85 97 100 100 96 83 68 64 68 77 85 72 55 59 62 61 71 83 93 101 93 81 78 81 88 92 91 92 91 86 85 88 93 96 98 100 100 100 101 101 101 101 99 99 100 100 99 99 100 99 97 93 80 65 66 83 96 89 74 68 72 80 84
11 12 14 19 26 39 63 80 78 73 83 95 99 100 95 86 75 67 66 65 72 89 90 79 86 90 79 85 98 99 94 83 77 87 92 89 91 95 95 94 92 92 95 97 97 96 95 93 91 90 90 90 88 86 84 86 93 100 100 97 96 92 83 75 65 60 72 90 96 89 79 77 82 87
12 12 15 18 22 39 65 78 78 85 97 100 100 98 88 79 77 75 77 81 84 92 98 95 97 94 89 98 101 90 86 87 87 96 97 88 89 95 94 92 90 88 89 90 87 84 80 76 73 70 68 67 64 62 60 58 64 83 96 100 99 83 61 53 51 48 59 80 93 98 97 92 91 91
13 13 16 17 22 40 64 80 89 99 101 100 99 92 84 85 91 92 93 96 98 98 99 100 99 97 99 103 92 77 85 94 88 92 101 95 90 94 96 92 85 81 82 82 79 77 74 70 67 63 60 59 56 53 52 46 41 50 66 78 85 76 56 45 36 27 42 72 89 96 101 97 95 96
14 14 15 19 26 42 68 90 99 101 100 100 98 94 94 98 100 100 99 98 99 99 99 100 100 100 100 97 88 81 88 90 82 87 100 100 93 97 100 95 90 89 85 79 76 75 74 72 67 64 61 58 56 53 50 47 39 36 38 39 41 43 44 46 38 19 25 62 89 96 99 99 97 99
14 14 16 21 28 43 74 97 101 99 99 99 99 98 100 101 99 99 100 101 99 99 100 100 98 100 100 93 84 82 85 86 86 91 99 99 96 99 101 95 92 93 89 84 80 77 79 78 71 66 62 57 56 56 53 48 42 37 34 30 24 20 20 29 35 23 18 50 87 98 98 100 100 100
15 14 17 21 29 54 87 101 99 100 100 99 101 101 100 101 102 101 99 100 101 100 99 100 99 101 96 78 65 68 77 84 91 97 98 97 96 98 101 94 87 88 91 93 91 86 87 89 80 70 64 58 55 55 53 50 45 40 36 33 27 21 15 14 20 18 15 40 81 98 98 100 99 99
16 15 18 20 33 68 98 102 99 99 98 97 94 87 78 75 83 96 102 100 100 99 99 102 98 85 70 54 46 56 74 89 99 97 89 91 97 99 100 97 90 90 96 100 99 95 94 96 90 75 64 59 57 54 52 51 48 45 41 35 28 23 18 14 14 13 12 34 72 95 98 100 99 99
17 17 20 21 42 81 102 101 96 87 80 81 73 56 47 46 54 73 91 98 100 100 101 98 80 55 47 53 57 68 87 98 91 74 70 86 100 100 99 100 98 96 99 100 99 99 98 99 97 82 65 59 57 54 52 51 49 47 44 38 30 23 18 14 14 13 11 27 63 88 96 101 100 98
18 17 20 27 52 85 99 100 95 78 61 57 48 39 41 44 40 45 68 92 100 94 85 73 52 39 56 83 88 82 84 80 65 58 72 92 101 99 99 100 99 100 101 100 99 100 99 100 102 90 70 62 59 54 51 50 48 47 46 39 30 22 18 14 12 12 10 19 51 80 93 99 100 98
20 18 23 34 58 85 99 99 85 61 47 43 39 37 38 38 40 51 69 81 76 59 48 47 49 55 74 92 83 60 54 63 70 80 93 100 99 100 100 99 99 98 97 99 102 100 95 97 102 93 74 65 62 54 51 49 46 45 45 40 30 20 17 15 12 12 10 14 40 72 88 94 96 96
24 25 38 52 70 88 94 80 55 40 40 41 37 35 38 48 61 68 66 58 49 41 41 53 66 67 64 62 51 39 47 72 90 97 99 100 100 101 99 95 93 88 86 94 102 100 93 95 102 95 79 71 65 56 52 50 44 44 43 38 30 20 16 16 13 11 9 11 31 64 84 90 92 94
29 29 43 57 67 70 62 44 35 39 44 44 44 47 56 68 67 53 43 45 50 49 48 56 59 49 41 37 35 35 43 59 79 93 100 100 100 101 98 92 87 83 81 89 100 103 98 96 100 97 85 78 71 59 52 49 43 41 42 38 30 19 15 19 19 14 9 8 25 57 82 89 91 94
34 31 40 45 46 44 36 30 36 42 47 58 72 78 80 74 54 38 39 47 47 41 39 39 36 30 28 28 29 32 33 47 77 99 103 100 99 102 99 92 87 84 80 86 98 103 97 93 98 100 92 88 84 69 55 48 43 40 39 36 30 19 11 19 31 26 11 6 22 53 80 90 91 95
38 34 36 35 34 32 30 33 40 41 49 72 90 96 89 68 46 43 46 40 31 27 26 23 21 21 22 22 25 29 32 56 90 103 100 100 100 100 100 97 94 86 78 86 101 102 96 95 99 101 97 96 92 76 58 47 40 39 39 33 27 19 10 19 44 42 15 4 22 52 77 88 92 97
38 31 29 30 34 33 31 38 42 41 55 83 98 96 79 55 46 52 47 31 21 19 18 18 18 18 20 21 25 26 36 68 97 102 100 101 100 100 100 99 100 92 80 85 99 101 99 100 99 99 101 97 85 74 68 58 41 34 37 33 23 17 12 27 59 61 24 2 21 53 75 84 91 99
34 27 24 29 35 35 35 41 40 44 71 98 95 73 54 52 62 60 38 23 21 18 16 18 18 17 18 19 21 24 43 77 99 101 101 101 99 101 101 98 102 99 83 81 94 100 101 101 98 98 103 101 90 82 85 85 64 40 33 31 22 16 21 42 67 62 25 4 23 54 72 78 87 98
29 23 24 29 34 35 37 39 38 47 73 85 69 46 42 55 64 47 23 18 22 19 18 19 17 17 17 17 19 27 49 80 98 100 101 101 99 101 100 99 102 97 82 82 96 102 99 100 100 99 100 101 99 93 92 99 94 65 37 24 18 20 37 60 72 53 16 5 28 54 68 77 86 93
25 22 26 30 33 34 35 36 38 43 50 49 38 32 33 36 35 25 18 21 21 19 21 20 17 17 16 16 19 27 49 77 94 98 99 100 100 100 100 100 101 95 85 87 99 103 99 98 99 100 100 99 100 100 96 98 103 86 50 22 17 35 62 83 86 59 17 7 32 54 66 78 86 90
23 25 28 30 31 32 32 34 37 38 35 29 24 23 22 21 21 20 20 22 21 21 21 19 18 18 17 18 20 27 48 72 87 94 98 99 100 100 99 100 101 98 94 94 99 101 100 99 98 99 102 100 98 101 98 95 100 97 75 48 37 55 83 98 98 72 28 12 33 54 62 71 79 87
25 27 29 29 29 31 32 33 35 32 26 21 18 18 19 20 20 21 21 22 22 22 21 20 20 20 18 20 22 29 49 69 81 90 96 99 101 101 100 100 100 100 99 98 99 99 99 99 99 99 101 101 100 99 97 97 99 93 85 77 66 68 86 100 103 89 55 30 37 55 63 66 72 86
26 27 29 29 28 31 32 32 29 24 19 17 18 20 20 21 21 22 23 23 23 23 24 22 21 21 20 21 23 30 46 63 74 82 89 95 100 101 100 100 100 100 101 100 99 100 100 99 100 100 100 99 100 99 96 99 99 88 84 91 88 81 88 98 101 99 86 63 53 58 63 62 66 83
28 28 28 29 29 31 30 26 21 18 18 18 20 20 20 21 23 23 24 25 25 26 26 25 24 23 22 21 22 26 38 53 65 73 79 87 94 98 100 101 100 99 100 100 99 100 100 99 99 100 101 99 99 100 98 98 99 94 92 99 99 93 96 100 99 100 99 91 80 75 75 75 77 86
27 27 28 30 29 27 24 21 18 18 19 20 20 22 22 23 24 25 26 27 28 28 29 29 28 26 24 23 21 21 28 41 54 62 69 77 86 93 97 99 99 100 100 100 100 100 99 100 100 99 100 100 98 100 101 99 98 98 97 99 100 98 99 100 99 98 99 99 98 95 95 96 95 95
27 28 29 30 28 24 20 18 19 19 20 21 22 23 25 25 26 27 28 28 29 31 31 31 31 29 27 26 23 21 22 29 40 49 57 65 74 83 90 95 97 98 98 98 100 100 99 100 100 99 100 100 99 99 100 100 99 99 99 99 100 99 99 100 100 101 101 99 99 100 100 100 100 99
27 28 31 29 25 22 18 18 20 20 21 23 24 26 27 28 28 29 30 31 32 32 33 33 33 32 31 28 26 25 22 22 28 36 45 52 60 68 78 88 94 97 98 98 99 100 100 99 100 100 99 99 100 100 100 100 100 100 100 100 100 99 100 98 92 88 85 83 87 96 101 99 99 100
28 29 32 27 21 19 18 19 21 22 24 25 27 29 31 31 31 32 32 32 33 33 34 35 35 34 34 32 30 27 25 23 23 26 33 40 48 54 62 72 84 92 98 100 100 99 100 99 99 100 100 99 100 100 99 100 100 99 100 100 100 100 101 97 88 79 72 70 78 93 101 100 99 100
28 30 30 25 19 18 19 21 22 24 27 29 31 34 35 35 35 35 34 34 35 35 36 36 36 37 37 36 34 32 29 27 24 23 24 28 35 43 50 57 68 79 89 97 100 100 100 100 100 99 99 100 100 100 99 99 100 100 100 100 99 99 100 100 97 93 90 88 91 98 101 99 100 100
29 31 28 23 18 18 20 22 24 27 31 33 36 38 38 38 38 37 36 37 37 37 37 37 37 38 38 38 38 36 34 31 28 26 24 23 25 31 38 44 53 63 75 87 95 98 98 98 98 99 99 99 98 99 100 99 99 100 100 99 100 100 100 100 100 100 100 99 99 99 100 99 99 100
29 31 27 20 18 20 22 24 28 32 35 38 39 40 40 40 40 39 38 39 39 39 39 39 38 39 39 39 39 39 38 36 33 29 27 26 24 24 27 33 39 47 58 71 83 91 95 95 95 96 98 98 98 99 100 100 100 100 99 99 99 100 100 100 100 100 100 100 100 100 100 100 99 98
29 29 26 19 18 22 25 27 32 36 38 40 42 41 41 41 41 41 40 40 40 40 40 40 40 40 40 40 39 40 40 39 37 35 32 30 27 25 24 26 29 34 43 52 62 74 84 91 93 94 96 98 100 99 99 100 100 100 100 99 100 100 100 99 100 100 100 100 100 100 100 99 98 96
30 27 24 19 19 24 27 31 36 39 40 42 42 41 41 40 40 42 41 39 39 40 41 41 41 41 41 42 41 42 42 41 41 40 37 34 32 30 27 26 25 27 31 36 44 54 68 81 89 93 96 99 101 99 99 100 100 100 100 100 100 100 100 100 100 100 100 100 100 100 100 100 99 99
31 28 24 19 20 26 30 33 38 40 40 42 43 42 41 40 39 41 40 38 38 40 41 42 42 42 42 42 42 43 43 43 44 44 43 40 36 33 31 29 26 25 25 28 33 41 54 70 83 90 94 98 101 100 99 99 99 100 100 100 100 99 99 100 100 99 100 100 100 100 99 99 99 99
29 27 23 19 21 27 31 35 40 42 41 42 43 44 42 40 38 39 39 38 39 41 42 43 44 44 44 44 43 44 45 45 45 46 45 44 42 38 35 32 30 27 26 26 27 32 42 56 70 78 84 91 94 93 93 96 99 100 100 99 100 100 99 100 100 99 100 100 100 100 100 100 99 99
27 25 20 19 23 28 33 38 42 42 42 43 44 45 43 40 38 38 39 39 41 43 44 46 47 48 48 48 47 46 47 47 48 48 47 47 46 44 40 37 34 32 30 27 26 27 31 38 48 57 66 75 81 83 86 93 99 101 100 99 100 100 100 100 100 99 100 100 100 100 99 99 99 99
28 25 20 19 23 29 34 39 42 43 43 43 44 44 43 40 38 39 39 41 43 45 46 48 50 51 52 52 52 51 50 50 51 51 50 50 49 48 46 43 40 36 34 31 29 26 25 26 32 38 44 54 63 70 75 83 92 98 100 100 100 100 100 100 100 100 100 100 100 100 100 100 100 99
28 26 22 19 23 29 35 40 42 44 44 44 44 45 43 40 39 40 41 42 45 46 48 50 52 54 55 56 56 55 54 54 55 55 54 53 53 52 51 49 45 42 38 35 32 29 26 24 25 28 32 38 47 53 58 64 75 87 95 98 99 100 100 100 100 100 100 100 100 99 99 100 100 98
30 27 23 20 22 29 36 40 42 44 44 44 45 45 44 41 40 41 42 44 46 48 51 52 54 55 57 58 58 58 58 59 59 59 58 57 56 55 54 53 51 48 44 41 37 34 31 28 25 25 26 29 34 39 43 48 55 67 80 88 93 95 98 99 100 100 100 100 100 100 100 100 100 99
Wind_Speed
24 23 23 23 22 21 19 19 20 20 22 24 25 27 25 25 29 29 33 45 48 40 36 35 36 37 37 41 44 44 44 42 39 37 35 35 35 35 33 32 32 32 32 32 32 32 32 32 32 31 31 31 31 30 30 32 32 30 30 31 32 33 33 30 24 19 15 14 21 28 27 27 25 21
24 24 23 23 22 21 21 20 20 21 23 26 26 26 24 23 27 29 32 43 48 42 39 37 38 43 43 44 46 46 44 41 37 35 35 35 35 34 33 32 32 32 32 32 32 33 32 32 32 32 32 32 31 31 29 30 31 30 29 29 31 33 34 33 29 22 19 17 19 24 24 27 31 26
24 24 23 23 23 22 22 21 22 23 24 26 25 23 23 24 27 30 31 40 48 44 42 45 44 45 47 46 48 47 43 38 35 33 34 34 33 33 34 33 32 32 33 33 34 34 34 34 34 33 33 32 31 30 29 29 30 29 28 28 29 31 34 35 32 26 21 20 21 24 25 26 32 33
24 24 23 23 23 22 22 23 23 24 24 25 23 22 24 25 27 31 31 38 50 49 45 47 47 44 47 48 47 45 42 38 35 33 33 35 36 37 38 37 35 35 35 35 35 34 34 34 33 33 32 31 30 30 28 28 29 29 28 27 28 28 32 35 33 28 23 22 21 23 25 23 25 33
24 24 24 24 23 22 24 25 24 24 25 24 22 23 25 26 27 31 32 36 48 53 46 45 47 45 46 47 45 42 41 39 34 33 36 40 41 40 38 36 34 32 32 32 32 32 31 30 30 30 30 29 29 29 29 27 28 29 27 27 27 27 29 33 34 30 25 23 22 22 26 26 23 28
24 24 24 24 23 23 25 26 25 25 24 23 24 24 25 28 29 31 33 35 42 51 51 47 46 45 44 45 44 40 38 37 34 37 42 42 40 37 36 34 32 30 28 27 28 29 29 29 29 29 28 29 29 28 28 28 27 28 28 27 27 26 27 30 34 32 28 26 27 29 30 31 30 30
24 24 24 24 24 25 26 26 25 25 24 23 24 25 25 28 31 31 34 35 38 46 51 47 45 46 44 43 43 39 35 35 38 42 43 40 38 37 35 33 32 29 27 26 26 28 29 29 29 29 28 28 28 28 28 28 27 27 27 27 26 26 26 28 33 34 30 29 34 42 41 34 32 35
25 24 24 24 24 25 26 26 25 25 24 23 24 26 26 28 32 33 33 34 36 40 46 46 42 41 42 43 41 37 34 37 41 42 40 38 38 37 35 33 32 29 26 24 24 26 26 27 27 27 26 26 26 27 27 27 27 27 27 27 27 27 27 28 32 35 33 29 30 41 47 41 32 32
25 25 24 24 24 25 25 25 26 24 23 23 24 26 27 29 32 33 33 34 35 35 40 42 38 37 41 41 35 34 37 42 42 39 37 38 37 36 35 33 32 31 28 26 25 25 26 26 27 27 27 28 28 29 30 29 28 27 27 28 28 29 29 29 31 35 36 32 28 31 38 38 31 26
25 24 24 23 23 24 25 25 25 24 23 24 25 26 28 30 31 32 32 32 32 31 33 36 36 37 37 35 36 40 41 40 40 38 38 39 37 35 39 40 39 37 33 31 30 30 30 30 31 31 30 30 31 31 32 33 33 30 28 28 29 30 30 31 32 34 36 35 31 28 27 29 28 26
25 25 23 23 23 24 24 23 23 23 23 24 26 28 28 28 28 30 32 30 29 29 31 32 35 35 34 37 44 47 41 36 39 38 35 37 40 39 41 45 46 43 39 36 35 33 31 30 29 30 30 30 31 31 32 34 36 36 34 32 31 30 29 30 31 33 35 35 35 31 25 24 26 26
25 24 23 23 23 23 23 23 22 22 23 25 26 27 26 26 28 29 31 31 29 29 30 31 34 36 40 45 47 45 41 38 40 37 32 36 44 45 44 46 44 42 42 40 38 35 31 29 28 27 29 30 30 31 33 34 35 37 38 37 35 33 31 29 29 31 34 35 35 34 29 24 22 22
25 24 23 23 22 21 21 22 22 23 23 23 23 24 25 26 28 30 31 31 29 28 29 32 36 39 43 46 46 45 43 40 39 39 36 40 47 47 47 48 43 40 42 42 38 34 30 29 28 27 28 28 28 30 32 33 34 35 37 37 35 34 32 30 29 29 34 36 35 35 33 28 24 23
24 24 23 22 22 21 20 21 22 22 22 22 22 24 25 26 27 29 31 30 28 28 31 35 38 41 43 44 44 45 43 40 40 41 40 44 48 47 48 52 48 41 39 38 36 35 32 30 30 30 29 29 28 29 31 32 33 34 35 35 34 33 32 32 30 29 32 37 36 35 35 32 28 28
24 24 23 22 21 20 20 23 25 25 25 26 27 27 27 27 27 27 28 28 28 29 33 36 38 42 44 43 42 42 41 39 40 43 44 45 47 48 48 49 48 41 33 30 33 35 34 31 32 33 31 30 29 30 30 31 32 33 34 34 33 33 32 32 31 30 32 36 37 36 35 33 29 29
24 23 23 22 21 20 22 26 27 27 28 28 28 29 29 29 28 26 25 26 26 29 34 38 39 40 41 40 39 39 39 38 42 46 47 44 42 43 42 41 41 38 30 27 31 35 34 32 33 34 32 30 30 30 30 31 31 32 33 33 32 32 33 32 30 30 31 36 38 37 36 34 31 30
23 23 22 22 22 22 25 28 28 28 28 27 27 27 27 28 28 27 24 22 25 29 34 37 36 35 35 37 38 38 39 42 46 46 44 42 40 42 43 41 40 39 32 28 31 37 36 30 31 36 34 30 30 30 30 31 32 33 33 34 33 32 33 32 31 30 31 36 38 37 36 35 33 32
22 22 22 22 22 24 27 28 29 27 26 26 25 25 27 27 26 25 24 24 26 29 31 32 32 32 33 36 39 41 40 41 41 40 40 42 42 44 46 45 43 42 39 33 34 41 41 31 30 37 36 31 30 30 30 30 32 33 34 34 34 34 33 32 31 31 31 35 39 37 36 36 34 33
20 21 22 22 23 25 28 28 26 24 23 23 24 25 26 25 25 25 26 27 28 28 27 28 30 32 34 37 40 41 39 38 36 36 39 41 42 44 45 46 45 42 37 31 30 38 39 31 30 35 34 30 30 30 30 32 32 34 35 35 35 35 34 32 30 31 32 35 39 37 35 35 34 33
20 21 22 22 24 25 26 24 20 19 20 21 22 24 24 25 27 28 26 26 27 26 25 26 29 32 35 37 39 38 37 37 36 36 37 38 38 39 41 44 44 38 32 28 25 31 36 31 30 34 32 29 28 27 29 32 33 35 36 35 35 36 36 32 30 31 33 35 38 38 35 35 33 31
21 21 21 22 23 23 21 19 17 17 17 18 19 21 23 26 28 28 26 26 26 26 25 26 29 32 34 35 36 35 34 34 32 31 34 35 32 31 34 39 40 38 34 28 21 25 29 26 25 29 28 26 26 25 27 30 33 35 36 36 36 36 37 34 29 30 33 35 38 39 35 34 32 31
22 21 21 21 20 19 17 16 15 14 15 16 18 20 23 27 28 28 27 27 26 26 27 28 29 31 32 33 33 32 31 29 27 27 30 31 27 26 30 34 37 39 31 17 10 16 19 18 18 21 24 25 24 22 23 27 31 34 35 36 36 36 37 34 28 29 33 35 38 39 35 33 32 31
22 20 19 18 18 17 16 14 13 13 13 14 17 20 24 26 27 27 27 27 28 29 29 30 30 31 31 31 30 29 27 25 24 24 25 24 23 25 28 29 32 35 27 12 9 16 19 20 21 19 21 25 19 11 11 17 25 31 34 35 36 36 36 33 28 28 32 35 39 39 35 33 32 31
20 18 17 16 16 16 14 13 13 12 11 12 17 21 23 23 24 25 27 28 28 29 29 29 30 31 31 30 28 26 24 22 21 21 21 20 20 23 27 27 28 33 30 18 17 23 25 25 25 19 17 21 19 12 7 8 14 23 30 33 35 36 35 32 28 28 32 35 39 39 34 32 32 32
18 17 16 14 14 14 13 12 12 11 10 13 17 20 20 19 20 23 25 25 25 26 27 28 28 29 28 27 24 22 21 19 19 19 19 19 19 21 25 26 27 33 30 20 19 26 27 25 25 21 18 19 23 21 14 8 9 16 24 30 34 35 33 30 27 29 32 36 40 39 34 31 32 33
16 15 14 13 12 12 11 10 10 11 13 14 15 16 16 16 17 19 21 22 23 24 25 25 25 25 24 24 22 21 20 18 18 19 19 19 19 18 19 21 25 30 29 21 17 21 24 25 25 23 21 21 23 23 19 13 9 11 20 28 32 32 30 27 26 28 32 37 40 40 34 30 31 33
14 13 13 12 11 10 9 9 10 11 12 12 11 12 12 13 15 17 18 19 20 21 21 21 22 23 23 23 22 21 20 19 18 19 20 19 17 15 13 15 19 25 27 23 18 16 20 25 26 24 24 25 24 24 21 15 9 9 19 27 29 29 28 26 26 28 31 37 41 39 34 30 30 31
13 12 12 11 10 8 8 9 10 9 9 8 8 9 11 12 13 15 16 17 17 18 20 21 23 24 25 25 24 22 21 20 19 20 22 23 20 14 10 9 12 16 18 18 17 17 20 26 27 25 25 26 26 26 21 14 9 11 20 25 27 29 28 25 26 26 29 34 38 37 34 31 30 30
12 11 11 10 8 8 8 8 7 6 5 5 6 7 9 11 12 13 13 14 16 18 21 23 24 26 26 25 24 23 21 20 21 22 23 25 23 13 7 7 7 7 8 9 10 13 16 20 21 21 21 22 23 24 20 12 7 10 19 22 23 26 27 25 25 25 27 31 34 35 34 32 31 32
12 11 10 9 8 8 7 6 5 4 3 3 4 6 8 10 10 11 13 15 17 19 21 23 25 26 27 27 26 25 24 22 23 23 23 26 26 19 12 9 8 7 9 10 8 5 6 8 9 12 14 16 17 17 15 11 9 10 19 21 21 23 24 24 24 24 25 27 29 31 32 30 30 32
12 11 10 9 8 8 6 5 5 4 1 2 4 5 7 8 9 11 14 15 17 19 21 23 24 26 27 29 29 28 28 26 25 25 25 27 30 28 24 19 14 11 11 11 9 8 10 9 4 4 7 8 7 6 5 5 6 11 18 20 22 23 23 23 23 24 25 26 26 27 27 27 28 31
12 12 11 10 9 8 6 6 6 3 1 1 3 4 5 7 8 11 13 14 16 18 20 22 24 25 27 29 30 31 31 30 29 28 28 28 30 31 31 30 25 19 15 11 10 14 20 22 18 10 6 8 9 8 10 10 10 14 17 18 20 23 24 25 24 23 24 24 23 23 24 26 29 31
13 13 12 11 10 9 8 8 6 3 2 1 2 3 4 6 8 9 11 13 16 18 20 22 24 26 27 29 31 32 33 33 33 32 31 31 31 30 32 34 34 30 25 19 14 13 17 23 28 25 19 19 19 18 17 16 16 16 17 16 17 19 22 24 25 23 22 23 22 23 23 25 28 32
14 13 13 12 11 10 9 8 6 3 2 1 1 2 3 5 7 9 11 13 15 17 19 21 24 26 27 29 30 32 34 35 35 35 34 33 33 32 33 34 35 36 34 29 22 17 14 15 20 24 24 23 22 20 18 18 18 16 16 15 14 15 17 20 23 23 22 22 23 24 24 25 27 30
15 14 14 13 12 12 10 8 5 4 2 1 0 2 4 5 7 8 10 12 15 17 18 20 22 25 27 29 31 32 33 35 36 36 36 35 35 35 34 34 35 36 36 33 29 24 20 16 16 19 22 23 23 23 22 21 20 17 16 15 14 15 16 18 20 22 21 21 22 23 24 26 27 29
16 15 15 14 13 12 11 9 7 5 4 2 1 2 4 5 6 8 10 12 15 16 18 20 21 23 26 28 30 31 33 34 35 36 37 37 37 36 35 34 34 34 34 34 33 30 27 24 21 21 22 24 26 25 23 21 19 17 16 15 14 15 16 17 19 20 18 17 19 21 23 25 26 27
18 17 16 16 15 14 12 11 9 7 5 3 1 1 3 4 6 8 10 12 14 16 18 19 21 23 24 26 28 30 32 33 35 36 38 38 38 38 38 36 35 34 33 33 33 32 31 30 29 27 26 27 27 25 23 21 20 17 15 15 15 15 15 15 17 19 18 16 16 18 20 22 24 25
18 18 17 17 16 15 14 12 10 8 5 4 2 1 2 4 6 8 9 11 13 15 17 19 20 22 23 25 27 28 30 32 34 35 37 38 39 39 39 38 37 35 34 32 31 32 32 33 32 31 30 28 26 23 20 21 21 18 16 15 15 14 13 13 15 17 18 17 16 16 16 17 18 19
19 18 18 18 18 17 15 13 11 8 6 4 3 1 2 3 5 7 8 10 13 15 16 18 20 22 23 24 26 27 29 31 33 34 35 37 38 38 39 39 38 37 36 35 34 33 34 33 33 31 29 25 22 20 20 21 22 20 16 14 13 13 12 12 12 13 16 17 18 17 16 15 14 14
20 19 19 19 18 17 16 13 11 9 7 5 4 2 1 2 4 5 7 10 12 14 16 18 20 21 22 23 25 26 27 29 30 32 33 34 35 36 37 37 38 38 38 38 37 36 35 34 32 30 26 22 18 16 17 18 18 17 16 15 15 14 12 11 10 10 11 14 15 16 17 16 15 13
21 21 21 21 19 18 16 14 11 9 7 6 4 3 2 1 2 4 6 9 11 13 15 17 19 20 22 23 24 25 26 27 28 29 31 32 33 34 34 35 36 37 38 39 38 37 34 30 26 24 23 19 16 16 17 19 18 18 18 18 16 14 12 10 9 9 9 10 13 14 15 16 16 15
21 21 21 21 20 18 16 14 12 10 8 7 5 4 3 1 1 3 5 8 10 12 14 16 18 19 21 22 23 24 25 26 27 28 29 30 31 32 33 34 36 37 37 37 37 34 30 26 22 21 21 20 19 21 25 26 23 19 17 16 16 14 12 9 8 9 9 9 12 14 14 14 14 14
20 20 21 21 20 19 16 14 12 11 9 8 6 5 3 2 0 2 4 6 8 10 12 14 16 18 20 21 22 23 24 25 26 26 27 28 29 30 31 32 33 33 33 33 32 31 29 27 25 23 23 23 24 26 28 27 23 19 16 15 15 14 13 11 10 9 8 8 10 13 13 13 13 13
19 20 21 21 20 18 16 14 13 11 10 8 7 5 4 3 1 1 3 4 6 8 10 12 14 17 18 20 21 22 23 24 25 25 25 26 26 27 28 29 30 30 30 30 30 30 30 30 29 27 27 27 27 27 27 27 24 21 18 16 14 13 13 12 11 10 9 7 7 9 11 12 13 14
20 20 21 22 21 19 17 15 14 12 11 9 8 6 5 4 2 1 1 2 4 6 9 11 13 15 17 18 20 21 22 23 23 23 24 24 24 25 26 26 27 28 29 29 30 30 29 29 29 29 28 28 27 27 27 26 25 21 18 16 16 15 14 13 12 12 12 11 8 7 8 9 10 11
Wind_Direction
263 261 259 255 254 255 255 257 261 266 270 273 276 278 281 286 289 294 299 299 299 301 302 304 309 312 312 312 311 310 310 312 315 314 310 307 306 304 298 292 289 287 284 282 280 279 278 277 276 276 277 276 277 277 277 278 278 280 278 270 263 258 254 251 246 246 256 244 222 225 238 242 244 242
262 260 258 255 253 252 253 256 260 264 269 273 275 277 278 279 280 285 291 295 296 297 299 302 306 310 311 311 310 310 310 314 316 313 309 308 306 301 294 290 289 286 284 283 281 279 279 278 276 277 277 275 276 275 274 276 276 277 277 272 266 261 257 251 246 245 245 244 232 226 239 242 239 244
262 259 257 254 251 250 251 256 261 264 269 276 278 275 275 278 279 282 286 289 290 293 298 302 305 309 311 311 310 310 311 317 317 311 309 307 303 298 293 291 288 285 284 283 281 280 277 277 276 276 277 275 275 274 274 274 274 276 276 273 269 261 255 250 246 245 240 237 237 232 237 244 239 240
261 259 257 253 251 250 252 257 262 267 274 278 276 273 275 278 281 285 286 284 287 291 295 300 305 309 309 309 310 311 315 318 315 309 307 305 303 300 296 293 287 284 284 282 281 279 277 275 274 274 275 275 275 274 274 274 272 275 275 272 272 265 256 250 246 247 244 238 240 240 239 246 247 240
260 259 256 253 252 251 254 260 264 269 275 276 272 272 276 279 284 288 288 285 288 292 295 299 304 308 308 308 310 313 316 315 310 306 305 305 305 305 302 299 293 287 285 283 282 280 277 276 275 275 275 276 277 275 273 273 271 271 273 271 271 268 258 249 246 246 245 242 243 245 240 241 250 247
260 258 256 254 252 252 254 259 265 271 275 272 271 272 276 281 287 290 290 288 288 292 297 301 304 307 308 309 311 314 312 308 305 304 306 308 309 310 309 306 301 295 291 288 284 281 279 278 277 276 277 276 276 275 272 272 271 269 269 269 267 266 261 251 245 242 240 239 237 237 239 240 247 253
260 257 255 254 252 252 254 258 265 273 273 269 270 274 278 283 288 291 291 289 288 291 296 300 304 308 309 309 311 312 306 303 304 305 307 310 311 312 311 309 305 301 296 291 285 282 279 278 277 276 276 276 275 275 274 271 271 268 267 269 265 260 258 251 243 239 235 232 230 230 237 244 246 252
260 257 255 254 253 252 253 258 268 273 270 269 271 277 281 284 288 292 290 287 288 290 293 298 302 305 308 309 309 307 301 301 305 307 309 310 311 312 312 311 311 308 302 294 288 284 281 278 277 275 273 274 273 270 271 270 271 270 265 266 262 252 251 250 242 237 231 226 223 225 232 241 244 248
258 257 255 254 253 252 252 259 270 273 269 271 276 279 282 285 289 291 288 287 290 289 290 295 298 301 306 306 302 299 301 304 308 308 308 309 310 311 312 310 309 307 301 293 284 278 275 271 269 268 264 265 264 260 259 260 262 267 266 261 254 246 244 245 241 235 229 223 218 217 223 232 236 239
258 257 255 255 252 249 252 262 271 273 272 275 279 279 283 287 289 289 288 290 290 287 286 289 294 300 303 300 296 299 303 306 308 307 306 309 310 309 311 311 310 308 303 296 291 284 278 274 269 268 266 264 264 259 256 254 252 255 259 253 248 247 244 242 241 235 227 222 219 216 214 219 225 229
258 257 256 254 251 247 253 265 271 272 274 277 279 281 285 288 288 288 289 289 287 285 284 286 293 297 295 293 296 301 305 304 305 307 304 306 309 309 310 311 311 311 307 303 301 296 289 283 274 270 268 264 261 259 257 255 251 250 250 245 241 243 243 242 241 235 226 220 219 218 213 212 216 225
258 258 257 253 250 251 257 266 271 274 277 279 279 282 286 287 287 287 287 288 288 286 284 287 292 293 291 294 298 302 304 304 305 308 304 302 307 308 308 309 309 308 309 309 306 302 296 288 279 270 265 260 257 257 256 253 252 251 250 248 243 240 238 238 238 234 224 218 217 217 212 208 206 214
257 257 257 253 250 255 262 267 274 279 279 278 280 284 286 286 286 285 285 289 289 285 285 288 291 292 293 296 299 300 303 304 306 307 304 301 304 307 306 307 307 305 306 308 305 302 298 292 284 275 264 258 254 254 254 252 250 250 250 250 248 245 241 238 235 231 222 215 214 215 211 209 206 207
257 258 257 253 251 256 263 266 271 274 273 272 275 279 281 281 281 283 286 288 287 286 288 290 291 292 294 296 299 300 303 306 307 307 305 302 304 308 307 306 307 308 307 305 302 300 298 292 286 279 268 258 254 250 250 249 248 248 248 247 246 244 242 240 235 230 222 214 212 212 211 212 212 213
256 258 256 252 253 257 262 265 268 271 272 272 275 277 278 278 278 279 283 286 287 288 288 288 290 292 294 298 301 304 307 309 306 304 303 303 305 308 307 304 306 309 307 301 294 294 296 292 286 282 271 261 256 251 247 247 245 245 245 244 242 240 239 238 235 228 222 215 212 212 210 210 210 212
255 256 254 252 254 257 260 264 269 275 276 276 279 280 281 281 279 278 279 281 284 286 286 288 291 293 297 302 306 308 308 306 302 301 303 305 305 304 301 297 298 302 303 297 289 289 293 292 288 284 275 265 260 254 248 247 244 242 242 240 237 236 234 234 231 226 221 215 212 212 210 208 208 209
254 254 251 250 253 257 260 265 272 278 280 280 281 283 282 281 280 281 281 279 278 282 287 291 294 298 303 306 306 305 304 302 302 303 304 304 301 295 293 292 292 294 295 291 287 287 287 287 285 283 278 270 265 256 249 245 242 240 240 237 232 230 230 230 227 223 220 215 211 212 211 209 210 211
253 251 248 249 254 258 262 268 275 279 280 281 283 283 281 282 285 288 288 285 284 287 292 296 299 303 304 303 302 305 306 303 302 301 298 297 294 291 291 291 290 291 291 288 284 283 284 283 280 281 282 278 269 259 249 244 240 237 237 234 229 226 225 225 223 220 218 214 211 210 211 211 212 212
251 248 248 251 256 261 265 272 277 280 282 283 284 285 286 289 292 292 292 294 297 298 299 300 302 303 303 303 305 307 305 300 295 291 289 289 290 291 292 292 292 295 297 293 282 278 284 287 279 280 286 284 274 263 251 243 237 234 234 231 227 223 221 220 220 218 216 214 210 208 210 211 211 211
251 248 249 256 261 266 270 275 279 281 282 285 286 287 291 293 293 294 298 302 302 301 301 301 302 303 305 306 306 304 300 294 291 289 288 288 290 293 294 295 298 302 304 303 288 275 282 288 280 279 288 287 278 268 252 242 235 231 231 229 225 222 218 215 216 217 215 212 208 206 207 209 209 209
255 253 255 262 266 269 274 277 280 280 278 281 285 288 292 294 296 301 307 305 302 303 306 307 307 308 308 306 304 302 299 294 292 290 289 291 295 298 299 298 301 304 307 310 298 277 281 290 283 281 290 291 281 270 253 240 233 229 228 225 221 220 216 212 213 216 214 211 207 204 205 207 206 207
254 256 261 267 269 271 275 278 280 279 277 281 287 290 292 296 302 308 309 309 312 316 316 315 313 312 310 307 305 303 299 295 293 291 291 296 301 301 300 300 302 305 309 317 302 281 291 307 299 292 299 296 284 271 256 243 232 226 226 224 218 216 213 210 212 217 213 208 205 203 203 204 204 206
251 257 263 267 270 274 278 281 280 278 281 287 289 289 292 300 308 311 313 319 325 324 322 321 320 317 314 311 307 304 300 298 297 297 296 299 303 303 301 302 303 302 302 306 297 290 298 305 301 295 298 297 293 283 266 252 238 228 226 224 217 213 210 207 210 216 212 206 203 201 201 203 203 206
250 258 263 265 268 274 278 279 279 280 284 285 284 290 298 306 311 313 319 325 326 324 325 326 323 321 317 312 308 305 303 302 304 308 307 304 306 307 305 304 297 290 291 298 297 291 291 293 293 289 285 285 286 283 278 269 249 235 230 224 216 209 206 203 206 211 208 204 201 199 199 203 204 207
250 259 262 262 265 269 271 273 276 279 277 275 284 297 305 307 310 316 324 329 328 328 329 328 324 320 316 313 313 311 312 314 317 322 321 312 311 309 304 302 293 284 290 306 303 291 290 289 288 289 283 273 272 273 274 273 258 241 233 225 214 205 201 199 203 207 204 201 199 198 198 202 205 207
251 256 258 260 262 263 267 271 274 275 276 282 294 304 308 312 319 327 333 336 336 335 334 331 328 326 323 325 326 325 325 326 327 334 334 323 316 311 301 295 289 285 292 306 300 286 285 283 281 283 281 273 271 275 277 280 276 242 224 219 210 199 194 195 202 205 202 199 197 196 197 200 204 208
249 250 253 255 256 258 264 268 271 276 284 295 305 310 317 329 337 340 342 343 343 344 345 345 344 343 342 342 340 338 337 335 335 344 349 341 331 324 308 290 282 284 292 299 292 276 271 273 272 271 271 271 273 273 267 267 273 233 211 210 204 194 189 193 200 202 199 197 196 196 197 200 205 208
241 242 246 248 247 251 259 264 272 282 292 303 312 322 335 344 348 349 350 351 354 357 360 2 3 2 359 356 353 350 346 343 346 355 4 4 359 351 340 321 299 291 292 293 287 274 265 264 265 265 265 264 267 267 260 259 267 229 205 201 197 191 189 192 196 197 197 196 195 196 199 202 204 207
232 235 239 239 239 246 254 261 271 280 289 306 325 339 348 352 353 355 358 2 6 9 11 12 14 13 11 8 5 1 355 353 356 2 8 13 13 9 5 9 355 330 319 310 292 275 269 269 268 266 262 256 257 259 255 258 267 216 197 194 193 190 187 190 193 193 193 195 196 197 200 203 204 203
224 231 233 231 234 240 244 250 258 264 278 317 344 355 356 356 356 360 5 10 13 14 16 18 19 19 19 18 15 12 8 6 6 7 11 15 17 20 27 36 38 32 22 10 349 315 301 300 287 273 261 251 251 253 251 262 271 218 195 193 190 185 184 186 189 190 190 192 195 199 202 206 206 204
224 229 226 224 227 228 225 227 234 235 247 354 7 7 1 359 2 7 12 13 14 15 17 19 20 22 22 22 21 20 18 17 15 14 16 18 19 22 28 35 44 52 47 36 34 51 59 55 31 289 255 241 250 261 252 259 250 203 188 186 183 181 183 186 189 190 191 192 194 198 203 207 207 206
223 223 218 218 218 213 210 212 212 199 149 36 19 14 6 5 10 14 14 15 16 16 17 18 20 21 22 23 24 24 24 24 22 21 22 24 23 23 28 34 38 43 48 52 64 73 74 74 74 79 121 138 127 128 140 143 148 159 166 172 174 174 177 183 188 190 191 193 195 197 201 206 207 206
219 215 212 213 208 202 204 203 190 162 133 75 30 19 12 13 15 16 15 16 17 18 17 18 19 20 21 22 24 26 27 28 27 26 26 27 26 25 29 33 35 37 39 40 44 57 70 77 79 80 94 116 128 141 148 136 123 129 143 154 162 168 174 183 193 197 199 201 200 197 199 204 207 207
215 211 209 208 201 197 200 196 174 151 146 138 34 17 18 20 18 16 16 17 20 19 18 19 20 21 21 22 23 25 26 28 30 30 30 30 29 28 29 31 33 35 36 37 38 42 54 75 85 83 83 96 117 129 129 118 111 116 130 143 156 167 175 186 195 199 202 203 199 196 198 203 206 208
212 209 206 203 198 196 196 189 173 170 181 184 239 5 17 22 22 20 19 20 21 20 19 21 22 23 23 23 24 25 26 27 29 31 32 33 33 33 33 33 33 34 34 35 37 42 46 58 82 90 85 89 99 101 97 98 103 111 125 137 149 160 171 183 190 192 197 200 198 196 198 201 203 206
210 208 204 200 196 195 193 186 180 188 195 193 216 5 17 20 23 24 24 23 22 19 18 20 22 24 25 25 25 25 26 27 28 29 31 32 34 35 35 35 36 36 35 33 35 40 46 51 62 72 76 78 80 75 69 72 82 97 113 121 128 142 158 172 182 186 191 196 198 198 200 201 202 205
206 206 201 197 195 194 193 188 186 193 196 189 187 8 20 23 24 26 27 27 25 21 19 20 21 23 25 26 26 26 27 27 28 28 30 31 32 34 35 35 36 37 37 35 35 38 43 48 53 57 60 60 60 57 56 62 72 84 99 104 106 120 139 155 169 177 181 186 193 199 202 205 206 206
204 203 199 196 194 193 193 190 188 193 195 185 169 70 32 29 28 29 31 32 30 26 23 22 22 23 24 24 25 26 26 27 28 29 29 30 31 32 33 34 35 37 38 38 37 38 41 45 48 51 51 49 47 45 47 55 60 65 78 89 95 105 123 141 156 168 177 183 188 193 200 206 209 209
204 204 199 196 195 194 194 192 190 191 190 181 165 122 50 33 31 31 31 33 34 31 28 25 24 25 25 25 25 26 26 26 28 29 30 30 31 32 32 33 33 35 36 36 37 38 40 41 44 47 48 47 46 46 47 49 51 54 64 79 91 98 110 128 142 158 174 183 186 192 198 203 206 206
200 200 198 197 196 197 197 194 190 190 188 180 166 148 88 38 35 33 31 32 33 32 31 29 26 25 26 26 27 27 27 27 28 28 29 30 31 32 33 33 33 34 35 35 36 36 38 39 41 44 47 49 55 62 65 64 64 65 68 75 84 88 93 108 126 147 168 178 184 190 195 198 201 202
199 197 196 196 196 199 200 195 190 190 190 183 171 161 157 82 45 39 33 33 33 31 30 29 28 26 26 26 27 27 26 27 27 27 28 29 30 31 32 33 34 34 35 36 36 37 38 39 40 44 48 52 61 73 72 64 61 64 66 67 71 75 79 91 108 123 141 162 175 181 185 192 199 204
201 199 198 197 197 200 202 198 193 191 190 188 180 172 175 172 63 42 34 32 31 29 29 28 27 26 26 26 27 27 26 26 26 25 25 26 27 29 30 32 34 35 36 37 38 38 39 40 40 43 45 47 52 60 58 52 50 56 64 66 67 70 72 78 93 106 121 144 164 172 174 178 184 193
203 201 200 199 199 201 203 200 196 194 192 192 188 183 186 198 112 37 34 33 29 26 25 26 26 25 24 24 25 26 26 26 25 24 24 24 25 27 28 30 33 35 37 38 39 39 38 39 39 41 43 44 47 52 53 49 48 53 60 64 67 71 73 75 83 93 104 128 156 167 169 170 172 178
204 204 202 201 201 204 205 203 201 197 195 196 195 191 196 209 225 2 23 29 26 21 21 23 24 24 23 22 22 22 24 25 24 23 23 23 24 25 27 28 29 32 34 36 37 37 38 39 39 41 43 44 46 47 48 47 45 47 51 57 62 69 75 79 83 87 91 104 136 155 161 169 178 181
205 206 205 203 203 204 205 207 206 202 199 201 201 198 202 213 227 258 329 5 15 16 16 18 20 22 21 21 20 20 21 22 23 21 21 21 22 23 24 25 26 28 30 31 32 34 36 38 40 42 44 47 47 47 47 47 44 42 46 51 53 57 64 69 73 79 84 88 101 126 142 158 178 189